Miscellaneous Local Product
Issued by NWS North Platte, NE

Home | Current Version | Previous Version | Graphics & Text | Print | Product List | Glossary On
Versions: 1 2 3 4 5 6 7 8 9 10 11 12 13 14 15 16 17 18 19 20 21 22 23 24 25 26 27 28 29 30 31 32 33 34 35 36 37 38 39 40 41 42 43 44 45 46 47 48 49 50
000
AXUS43 KLBF 230110
MISLBF


WESTERN AND NORTH CENTRAL NEBRASKA HOURLY WEATHER ROUNDUP
NATIONAL WEATHER SERVICE NORTH PLATTE NE
800 PM CDT FRI JUL 22 2016

NOTE: "FAIR" INDICATES FEW OR NO CLOUDS BELOW 12,000 FEET WITH NO
SIGNIFICANT WEATHER AND/OR OBSTRUCTIONS TO VISIBILITY.

NOTE: STATIONS NOT REPORTING VARIABLES SUCH AS SKY/WEATHER OR
PRESSURE ARE PROVIDED BY RAWS AND APRS NETWORKS AND ARE NOT UNDER
NATIONAL WEATHER SERVICE QUALITY CONTROL.

...OBSERVATIONS IN AND NEAR THE EASTERN PANHANDLE OF NEBRASKA...

CITY           SKY/WX    TMP DP  RH WIND       PRES   REMARKS
PINE RIDGE     CLOUDY    83  57  41 SE20G28   29.98F
CHADRON        CLOUDY    79  62  56 SE18G24   29.97F
ALLIANCE       CLOUDY    69  64  84 SE12      30.04R
SIDNEY         CLOUDY    84  63  49 NE12      30.02S
CRESCENT LAKE    N/A     64  61  89 S7G33       N/A
$$

...OBSERVATIONS IN NORTHERN NEBRASKA AND FAR SOUTHERN SOUTH DAKOTA...

CITY           SKY/WX    TMP DP  RH WIND       PRES   REMARKS
WINNER         FAIR      92  74  55 SE12      29.94R HX 101
VALENTINE      PTSUNNY   90  68  48 E7        29.96F HX  94
THEDFORD       CLOUDY    89  74  61 E5        29.98S HX  97
AINSWORTH      CLOUDY    86  77  75 CALM      29.97S HX  97
O`NEILL        MOSUNNY   90  76  63 E12       29.93F HX 102
ORD            CLOUDY    90  77  65 E7        29.91S HX 103
BROKEN BOW     CLOUDY    87  72  60 S10       29.95R HX  93
VALENTINE NWR    N/A     89  68  50 E5          N/A  HX  93
BUTTE            N/A     87  77  72 NE6         N/A  HX  99
HALSEY           N/A     89  73  58 SE5         N/A  HX  96
EWING            N/A     86  81  84 CALM        N/A  HX 102
$$

...OBSERVATIONS IN SOUTHWEST NEBRASKA AND FAR NORTHEAST COLORADO...

CITY           SKY/WX    TMP DP  RH WIND       PRES   REMARKS
HOLYOKE        FAIR      86  61  42 W12       29.98F
IMPERIAL       CLOUDY    85  67  54 E6        29.97F
OGALLALA       CLOUDY    88  67  49 E9        29.95F HX  91
NORTH PLATTE   CLOUDY    87  79  76 SE8       29.95F HX 101
MCCOOK         CLOUDY    85  71  63 NE8       29.95R HX  90
LEXINGTON      CLOUDY    85  72  63 SE7       29.95S HX  91
STAPLETON        N/A     86  77  75 CALM        N/A  HX  97
GOTHENBURG       N/A     88  72  58 SE7         N/A  HX  94
CALLAWAY         N/A     89  82  78 S6          N/A  HX 108
$$

...OBSERVATIONS IN CENTRAL LINCOLN COUNTY AREA...

CITY           SKY/WX    TMP DP  RH WIND       PRES   REMARKS
N.P. AIRPORT   CLOUDY    87  79  76 SE8       29.95F HX 101
N.P. DOWNTOWN    N/A     89  78  70 SE3         N/A  HX 102
N.P. SOUTHEAST   N/A     88  79  73 SE6         N/A  HX 102
N.P. HILLCREST   N/A     87  78  73 SE9         N/A  HX  99
$$

...SOME OBSERVATIONS FROM AROUND THE REGION...

CITY           SKY/WX    TMP DP  RH WIND       PRES   REMARKS
DENVER         CLOUDY    87  50  27 S13       30.10S
LARAMIE        CLOUDY    81  45  28 S7        30.24F
CHEYENNE       CLOUDY    85  46  25 S9        30.15F
SCOTTSBLUFF    CLOUDY    79  61  53 E18       30.01F
RAPID CITY     CLOUDY    84  57  39 SW18G28   29.92F
BISMARCK       CLOUDY    76  67  73 SW13      29.99R THUNDER
PIERRE         CLOUDY    86  70  58 SE23G30   29.88S HX  90
SIOUX FALLS    MOCLDY    87  78  74 E8        29.94F HX 100
OMAHA          MOCLDY    91  81  72 SE12      29.89S HX 111
GRAND ISLAND   CLEAR     89  68  49 S3        29.92F HX  93
KANSAS CITY    PTCLDY    88  78  72 SE9       29.95S HX 101
WICHITA        PTCLDY    95  69  42 SE15      29.91R HX 100
OKLAHOMA CITY  PTCLDY    93  65  39 S8        29.96S HX  95
DALLAS         PTCLDY    95  64  35 S8        29.95S HX  97
AMARILLO       SUNNY     94  51  23 S20       30.06S HX  91
DODGE CITY     CLEAR     95  59  30 S10       29.95S HX  94
HAYS           PTCLDY    95  61  31 S8        29.90S HX  95
GOODLAND       SUNNY     96  54  24 S13       29.97S HX  94
$$




USA.gov is the U.S. government's official web portal to all federal, state and local government web resources and services.